Location: Faicchio
(41.2833°N, 14.4833°E)
Time: 05:56:36
(UTC+00:00)

Cosmos 2098 Rocket - Pass Details

Date: 15 June 2025
Orbit: 351 x 914 km, 82.9° (Epoch: 16 July)

Event Time Altitude Azimuth Distance (km) Brightness Sun altitude
Rises 01:52:37 0° 348° (NNW) 2,685 6.9 -14.3°
Reaches altitude 10° 01:54:58 10° 343° (NNW) 1,694 5.8 -14.1°
Maximum altitude 01:58:30 50° 268° (W) 569 2.6 -13.6°
Enters shadow 02:00:08 24° 202° (SSW) 908 3.4 -13.4°
